TIANLIAN 1-03

导读 | 豆包AI

TIANLIAN 1-03(天链一号03星)是中国研制发射的第一代数据中继卫星,于2012年7月25日在西昌卫星发射中心发射升空,定点于东经16.8°地球同步轨道。它主要为神舟系列载人飞船及后续载人航天器提供数据中继和测控服务,同时可为中低轨道资源卫星传输数据,支撑航天器发射测控。 该星与天链一号01、02星完成三星组网,实现对全球中低轨航天器100%轨道覆盖,标志着中国成为世界上第二个拥有全轨道覆盖中继卫星系统的国家,是中国天基测控系统建设的重要里程碑。

基本信息
目录编号:
38730
目录名称:
TIANLIAN 1-03
国际标识:
2012-040A
轨道中心:
EARTH
卫星名称:
TIANLIAN 1-03
卫星全名:
--
卫星状态:
在轨 (已飞行5001 天)
发射日期:
2012-07-25 UTC
国别 :
中国 (CN)
星等 :
--
轨道信息
数据来源 国际轨道数据 AOE轨道数据
星历时间 2026-04-03T21:04:06+0800
12小时前
查看轨道信息
2026-03-30T09:00:00+0800
5天前
查看轨道信息
半长轴 42547.451km 42548.197km
偏心率 0.0014871 0.0015051
轨道倾角 5.663° 5.652°
近地点辐角 149.900° 150.769°
升交点赤经 64.325° 64.361°
平近点角 224.535° 60.061°
近地点 36106.041km 36106.02km
远地点 36232.587km 36234.1km
周期 1455.694分钟 1455.732分钟
每日圈数 0.989219 0.989193
详细信息
使用方式:
暂无
2D轨道图
3D轨道图
轨道高度分析图
轨道倾角分析图
轨道综合分析图
查看轨道综合分析图